Year,Month,Day,Hour,Minute,Value (Times are PST for temperature in C)
2018,05,18,00,00,11.70
2018,05,18,00,01,11.70
2018,05,18,00,02,11.60
2018,05,18,00,03,11.60
2018,05,18,00,04,11.60
2018,05,18,00,05,11.50
2018,05,18,00,06,11.50
2018,05,18,00,07,11.40
2018,05,18,00,08,11.40
2018,05,18,00,09,11.30
2018,05,18,00,10,11.30
2018,05,18,00,11,11.20
2018,05,18,00,12,11.20
2018,05,18,00,13,11.20
2018,05,18,00,14,11.10
2018,05,18,00,15,11.10
2018,05,18,00,16,11.00
2018,05,18,00,17,10.90
2018,05,18,00,18,10.90
2018,05,18,00,19,10.80
2018,05,18,00,20,10.70
2018,05,18,00,21,10.70
2018,05,18,00,22,10.60
2018,05,18,00,23,10.60
2018,05,18,00,24,10.50
2018,05,18,00,25,10.50
2018,05,18,00,26,10.40
2018,05,18,00,27,10.40
2018,05,18,00,28,10.30
2018,05,18,00,29,10.30
2018,05,18,00,30,10.30
2018,05,18,00,31,10.20
2018,05,18,00,32,10.20
2018,05,18,00,33,10.20
2018,05,18,00,34,10.20
2018,05,18,00,35,10.10
2018,05,18,00,36,10.10
2018,05,18,00,37,10.00
2018,05,18,00,38,9.90
2018,05,18,00,39,9.90
2018,05,18,00,40,9.80
2018,05,18,00,41,9.80
2018,05,18,00,42,9.70
2018,05,18,00,43,9.70
2018,05,18,00,44,9.60
2018,05,18,00,45,9.60
2018,05,18,00,46,9.60
2018,05,18,00,47,9.50
2018,05,18,00,48,9.50
2018,05,18,00,49,9.50
2018,05,18,00,50,9.40
2018,05,18,00,51,9.40
2018,05,18,00,52,9.40
2018,05,18,00,53,9.30
2018,05,18,00,54,9.30
2018,05,18,00,55,9.20
2018,05,18,00,56,9.20
2018,05,18,00,57,9.20
2018,05,18,00,58,9.10
2018,05,18,00,59,9.10
2018,05,18,01,00,9.10
2018,05,18,01,01,9.00
2018,05,18,01,02,9.00
2018,05,18,01,03,9.00
2018,05,18,01,04,8.90
2018,05,18,01,05,8.90
2018,05,18,01,06,8.90
2018,05,18,01,07,8.90
2018,05,18,01,08,8.80
2018,05,18,01,09,8.80
2018,05,18,01,10,8.80
2018,05,18,01,11,8.80
2018,05,18,01,12,8.80
2018,05,18,01,13,8.70
2018,05,18,01,14,8.70
2018,05,18,01,15,8.70
2018,05,18,01,16,8.70
2018,05,18,01,17,8.70
2018,05,18,01,18,8.60
2018,05,18,01,19,8.60
2018,05,18,01,20,8.60
2018,05,18,01,21,8.60
2018,05,18,01,22,8.60
2018,05,18,01,23,8.50
2018,05,18,01,24,8.50
2018,05,18,01,25,8.50
2018,05,18,01,26,8.50
2018,05,18,01,27,8.40
2018,05,18,01,28,8.40
2018,05,18,01,29,8.40
2018,05,18,01,30,8.40
2018,05,18,01,31,8.40
2018,05,18,01,32,8.30
2018,05,18,01,33,8.30
2018,05,18,01,34,8.30
2018,05,18,01,35,8.30
2018,05,18,01,36,8.30
2018,05,18,01,37,8.30
2018,05,18,01,38,8.20
2018,05,18,01,39,8.20
2018,05,18,01,40,8.20
2018,05,18,01,41,8.10
2018,05,18,01,42,8.10
2018,05,18,01,43,8.10
2018,05,18,01,44,8.00
2018,05,18,01,45,8.00
2018,05,18,01,46,8.00
2018,05,18,01,47,7.90
2018,05,18,01,48,7.90
2018,05,18,01,49,7.90
2018,05,18,01,50,7.90
2018,05,18,01,51,7.90
2018,05,18,01,52,7.90
2018,05,18,01,53,7.90
2018,05,18,01,54,7.80
2018,05,18,01,55,7.80
2018,05,18,01,56,7.80
2018,05,18,01,57,7.80
2018,05,18,01,58,7.80
2018,05,18,01,59,7.70
2018,05,18,02,00,7.70
2018,05,18,02,01,7.70
2018,05,18,02,02,7.60
2018,05,18,02,03,7.60
2018,05,18,02,04,7.60
2018,05,18,02,05,7.60
2018,05,18,02,06,7.50
2018,05,18,02,07,7.40
2018,05,18,02,08,7.40
2018,05,18,02,09,7.40
2018,05,18,02,10,7.40
2018,05,18,02,11,7.40
2018,05,18,02,12,7.40
2018,05,18,02,13,7.30
2018,05,18,02,14,7.30
2018,05,18,02,15,7.40
2018,05,18,02,16,7.40
2018,05,18,02,17,7.40
2018,05,18,02,18,7.30
2018,05,18,02,19,7.30
2018,05,18,02,20,7.30
2018,05,18,02,21,7.30
2018,05,18,02,22,7.30
2018,05,18,02,23,7.20
2018,05,18,02,24,7.20
2018,05,18,02,25,7.20
2018,05,18,02,26,7.20
2018,05,18,02,27,7.10
2018,05,18,02,28,7.10
2018,05,18,02,29,7.10
2018,05,18,02,30,7.00
2018,05,18,02,31,7.00
2018,05,18,02,32,7.00
2018,05,18,02,33,6.90
2018,05,18,02,34,6.90
2018,05,18,02,35,6.90
2018,05,18,02,36,6.80
2018,05,18,02,37,6.80
2018,05,18,02,38,6.80
2018,05,18,02,39,6.80
2018,05,18,02,40,6.80
2018,05,18,02,41,6.80
2018,05,18,02,42,6.80
2018,05,18,02,43,6.80
2018,05,18,02,44,6.80
2018,05,18,02,45,6.80
2018,05,18,02,46,6.80
2018,05,18,02,47,6.80
2018,05,18,02,48,6.80
2018,05,18,02,49,6.80
2018,05,18,02,50,6.80
2018,05,18,02,51,6.80
2018,05,18,02,52,6.80
2018,05,18,02,53,6.80
2018,05,18,02,54,6.80
2018,05,18,02,55,6.80
2018,05,18,02,56,6.80
2018,05,18,02,57,6.80
2018,05,18,02,58,6.80
2018,05,18,02,59,6.80
2018,05,18,03,00,6.80
2018,05,18,03,01,6.70
2018,05,18,03,02,6.70
2018,05,18,03,03,6.80
2018,05,18,03,04,6.80
2018,05,18,03,05,6.80
2018,05,18,03,06,6.80
2018,05,18,03,07,6.80
2018,05,18,03,08,6.80
2018,05,18,03,09,6.80
2018,05,18,03,10,6.80
2018,05,18,03,11,6.70
2018,05,18,03,12,6.80
2018,05,18,03,13,6.70
2018,05,18,03,14,6.70
2018,05,18,03,15,6.70
2018,05,18,03,16,6.70
2018,05,18,03,17,6.70
2018,05,18,03,18,6.70
2018,05,18,03,19,6.70
2018,05,18,03,20,6.70
2018,05,18,03,21,6.70
2018,05,18,03,22,6.70
2018,05,18,03,23,6.70
2018,05,18,03,24,6.70
2018,05,18,03,25,6.70
2018,05,18,03,26,6.70
2018,05,18,03,27,6.70
2018,05,18,03,28,6.70
2018,05,18,03,29,6.70
2018,05,18,03,30,6.70
2018,05,18,03,31,6.70
2018,05,18,03,32,6.70
2018,05,18,03,33,6.60
2018,05,18,03,34,6.60
2018,05,18,03,35,6.60
2018,05,18,03,36,6.60
2018,05,18,03,37,6.60
2018,05,18,03,38,6.60
2018,05,18,03,39,6.50
2018,05,18,03,40,6.50
2018,05,18,03,41,6.50
2018,05,18,03,42,6.50
2018,05,18,03,43,6.40
2018,05,18,03,44,6.40
2018,05,18,03,45,6.40
2018,05,18,03,46,6.40
2018,05,18,03,47,6.30
2018,05,18,03,48,6.30
2018,05,18,03,49,6.30
2018,05,18,03,50,6.30
2018,05,18,03,51,6.30
2018,05,18,03,52,6.20
2018,05,18,03,53,6.20
2018,05,18,03,54,6.20
2018,05,18,03,55,6.10
2018,05,18,03,56,6.10
2018,05,18,03,57,6.10
2018,05,18,03,58,6.10
2018,05,18,03,59,6.00
2018,05,18,04,00,6.00
2018,05,18,04,01,5.90
2018,05,18,04,02,5.90
2018,05,18,04,03,5.90
2018,05,18,04,04,5.90
2018,05,18,04,05,5.90
2018,05,18,04,06,5.80
2018,05,18,04,07,5.80
2018,05,18,04,08,5.80
2018,05,18,04,09,5.80
2018,05,18,04,10,5.80
2018,05,18,04,11,5.70
2018,05,18,04,12,5.70
2018,05,18,04,13,5.70
2018,05,18,04,14,5.70
2018,05,18,04,15,5.70
2018,05,18,04,16,5.70
2018,05,18,04,17,5.60
2018,05,18,04,18,5.60
2018,05,18,04,19,5.60
2018,05,18,04,20,5.60
2018,05,18,04,21,5.50
2018,05,18,04,22,5.50
2018,05,18,04,23,5.50
2018,05,18,04,24,5.50
2018,05,18,04,25,5.40
2018,05,18,04,26,5.40
2018,05,18,04,27,5.40
2018,05,18,04,28,5.40
2018,05,18,04,29,5.30
2018,05,18,04,30,5.30
2018,05,18,04,31,5.30
2018,05,18,04,32,5.30
2018,05,18,04,33,5.30
2018,05,18,04,34,5.30
2018,05,18,04,35,5.20
2018,05,18,04,36,5.20
2018,05,18,04,37,5.20
2018,05,18,04,38,5.20
2018,05,18,04,39,5.20
2018,05,18,04,40,5.20
2018,05,18,04,41,5.10
2018,05,18,04,42,5.10
2018,05,18,04,43,5.10
2018,05,18,04,44,5.10
2018,05,18,04,45,5.10
2018,05,18,04,46,5.10
2018,05,18,04,47,5.00
2018,05,18,04,48,5.00
2018,05,18,04,49,5.00
2018,05,18,04,50,4.90
2018,05,18,04,51,4.90
2018,05,18,04,52,4.90
2018,05,18,04,53,4.90
2018,05,18,04,54,4.90
2018,05,18,04,55,4.90
2018,05,18,04,56,4.90
2018,05,18,04,57,4.90
2018,05,18,04,58,4.90
2018,05,18,04,59,4.80
2018,05,18,05,00,4.80
2018,05,18,05,01,4.80
2018,05,18,05,02,4.80
2018,05,18,05,03,4.80
2018,05,18,05,04,4.80
2018,05,18,05,05,4.80
2018,05,18,05,06,4.80
2018,05,18,05,07,4.80
2018,05,18,05,08,4.80
2018,05,18,05,09,4.80
2018,05,18,05,10,4.70
2018,05,18,05,11,4.70
2018,05,18,05,12,4.70
2018,05,18,05,13,4.70
2018,05,18,05,14,4.70
2018,05,18,05,15,4.70
2018,05,18,05,16,4.70
2018,05,18,05,17,4.80
2018,05,18,05,18,4.80
2018,05,18,05,19,4.80
2018,05,18,05,20,4.80
2018,05,18,05,21,4.80
2018,05,18,05,22,4.70
2018,05,18,05,23,4.70
2018,05,18,05,24,4.70
2018,05,18,05,25,4.70
2018,05,18,05,26,4.70
2018,05,18,05,27,4.70
2018,05,18,05,28,4.70
2018,05,18,05,29,4.70
2018,05,18,05,30,4.70
2018,05,18,05,31,4.70
2018,05,18,05,32,4.70
2018,05,18,05,33,4.70
2018,05,18,05,34,4.80
2018,05,18,05,35,4.80
2018,05,18,05,36,4.80
2018,05,18,05,37,4.80
2018,05,18,05,38,4.80
2018,05,18,05,39,4.80
2018,05,18,05,40,4.80
2018,05,18,05,41,4.80
2018,05,18,05,42,4.80
2018,05,18,05,43,4.80
2018,05,18,05,44,4.80
2018,05,18,05,45,4.80
2018,05,18,05,46,4.80
2018,05,18,05,47,4.70
2018,05,18,05,48,4.70
2018,05,18,05,49,4.70
2018,05,18,05,50,4.70
2018,05,18,05,51,4.70
2018,05,18,05,52,4.70
2018,05,18,05,53,4.70
2018,05,18,05,54,4.60
2018,05,18,05,55,4.60
2018,05,18,05,56,4.60
2018,05,18,05,57,4.60
2018,05,18,05,58,4.60
2018,05,18,05,59,4.60
2018,05,18,06,00,4.50
2018,05,18,06,01,4.50
2018,05,18,06,02,4.50
2018,05,18,06,03,4.50
2018,05,18,06,04,4.50
2018,05,18,06,05,4.50
2018,05,18,06,06,4.50
2018,05,18,06,07,4.50
2018,05,18,06,08,4.50
2018,05,18,06,09,4.50
2018,05,18,06,10,4.50
2018,05,18,06,11,4.50
2018,05,18,06,12,4.50
2018,05,18,06,13,4.50
2018,05,18,06,14,4.50
2018,05,18,06,15,4.50
2018,05,18,06,16,4.50
2018,05,18,06,17,4.50
2018,05,18,06,18,4.50
2018,05,18,06,19,4.50
2018,05,18,06,20,4.40
2018,05,18,06,21,4.40
2018,05,18,06,22,4.40
2018,05,18,06,23,4.40
2018,05,18,06,24,4.50
2018,05,18,06,25,4.50
2018,05,18,06,26,4.50
2018,05,18,06,27,4.50
2018,05,18,06,28,4.50
2018,05,18,06,29,4.50
2018,05,18,06,30,4.60
2018,05,18,06,31,4.60
2018,05,18,06,32,4.60
2018,05,18,06,33,4.60
2018,05,18,06,34,4.60
2018,05,18,06,35,4.60
2018,05,18,06,36,4.60
2018,05,18,06,37,4.60
2018,05,18,06,38,4.60
2018,05,18,06,39,4.60
2018,05,18,06,40,4.60
2018,05,18,06,41,4.60
2018,05,18,06,42,4.60
2018,05,18,06,43,4.70
2018,05,18,06,44,4.70
2018,05,18,06,45,4.70
2018,05,18,06,46,4.70
2018,05,18,06,47,4.70
2018,05,18,06,48,4.70
2018,05,18,06,49,4.70
2018,05,18,06,50,4.70
2018,05,18,06,51,4.70
2018,05,18,06,52,4.70
2018,05,18,06,53,4.70
2018,05,18,06,54,4.70
2018,05,18,06,55,4.70
2018,05,18,06,56,4.70
2018,05,18,06,57,4.70
2018,05,18,06,58,4.80
2018,05,18,06,59,4.80
2018,05,18,07,00,4.80
2018,05,18,07,01,4.80
2018,05,18,07,02,4.80
2018,05,18,07,03,4.80
2018,05,18,07,04,4.80
2018,05,18,07,05,4.80
2018,05,18,07,06,4.80
2018,05,18,07,07,4.80
2018,05,18,07,08,4.90
2018,05,18,07,09,4.90
2018,05,18,07,10,4.90
2018,05,18,07,11,4.90
2018,05,18,07,12,4.90
2018,05,18,07,13,4.90
2018,05,18,07,14,5.00
2018,05,18,07,15,5.00
2018,05,18,07,16,5.00
2018,05,18,07,17,5.00
2018,05,18,07,18,5.10
2018,05,18,07,19,5.10
2018,05,18,07,20,5.10
2018,05,18,07,21,5.20
2018,05,18,07,22,5.20
2018,05,18,07,23,5.20
2018,05,18,07,24,5.30
2018,05,18,07,25,5.30
2018,05,18,07,26,5.30
2018,05,18,07,27,5.30
2018,05,18,07,28,5.30
2018,05,18,07,29,5.30
2018,05,18,07,30,5.30
2018,05,18,07,31,5.40
2018,05,18,07,32,5.40
2018,05,18,07,33,5.40
2018,05,18,07,34,5.40
2018,05,18,07,35,5.40
2018,05,18,07,36,5.50
2018,05,18,07,37,5.50
2018,05,18,07,38,5.50
2018,05,18,07,39,5.50
2018,05,18,07,40,5.60
2018,05,18,07,41,5.60
2018,05,18,07,42,5.60
2018,05,18,07,43,5.70
2018,05,18,07,44,5.70
2018,05,18,07,45,5.70
2018,05,18,07,46,5.70
2018,05,18,07,47,5.70
2018,05,18,07,48,5.80
2018,05,18,07,49,5.80
2018,05,18,07,50,5.80
2018,05,18,07,51,5.80
2018,05,18,07,52,5.80
2018,05,18,07,53,5.90
2018,05,18,07,54,5.90
2018,05,18,07,55,5.90
2018,05,18,07,56,6.00
2018,05,18,07,57,6.00
2018,05,18,07,58,6.00
2018,05,18,07,59,6.10
2018,05,18,08,00,6.10
2018,05,18,08,01,6.10
2018,05,18,08,02,6.10
2018,05,18,08,03,6.20
2018,05,18,08,04,6.20
2018,05,18,08,05,6.20
2018,05,18,08,06,6.20
2018,05,18,08,07,6.30
2018,05,18,08,08,6.30
2018,05,18,08,09,6.30
2018,05,18,08,10,6.40
2018,05,18,08,11,6.40
2018,05,18,08,12,6.50
2018,05,18,08,13,6.60
2018,05,18,08,14,6.60
2018,05,18,08,15,6.60
2018,05,18,08,16,6.70
2018,05,18,08,17,6.70
2018,05,18,08,18,6.80
2018,05,18,08,19,6.80
2018,05,18,08,20,6.90
2018,05,18,08,21,6.90
2018,05,18,08,22,7.00
2018,05,18,08,23,7.00
2018,05,18,08,24,7.10
2018,05,18,08,25,7.10
2018,05,18,08,26,7.20
2018,05,18,08,27,7.20
2018,05,18,08,28,7.20
2018,05,18,08,29,7.30
2018,05,18,08,30,7.30
2018,05,18,08,31,7.30
2018,05,18,08,32,7.40
2018,05,18,08,33,7.40
2018,05,18,08,34,7.50
2018,05,18,08,35,7.50
2018,05,18,08,36,7.50
2018,05,18,08,37,7.60
2018,05,18,08,38,7.60
2018,05,18,08,39,7.60
2018,05,18,08,40,7.70
2018,05,18,08,41,7.70
2018,05,18,08,42,7.70
2018,05,18,08,43,7.70
2018,05,18,08,44,7.70
2018,05,18,08,45,7.70
2018,05,18,08,46,7.70
2018,05,18,08,47,7.80
2018,05,18,08,48,7.80
2018,05,18,08,49,7.80
2018,05,18,08,50,7.80
2018,05,18,08,51,7.80
2018,05,18,08,52,7.80
2018,05,18,08,53,7.80
2018,05,18,08,54,7.90
2018,05,18,08,55,7.90
2018,05,18,08,56,7.90
2018,05,18,08,57,7.90
2018,05,18,08,58,8.00
2018,05,18,08,59,8.00
2018,05,18,09,00,8.10
2018,05,18,09,01,8.20
2018,05,18,09,02,8.20
2018,05,18,09,03,8.30
2018,05,18,09,04,8.30
2018,05,18,09,05,8.40
2018,05,18,09,06,8.40
2018,05,18,09,07,8.50
2018,05,18,09,08,8.60
2018,05,18,09,09,8.60
2018,05,18,09,10,8.70
2018,05,18,09,11,8.80
2018,05,18,09,12,8.80
2018,05,18,09,13,8.80
2018,05,18,09,14,8.90
2018,05,18,09,15,8.90
2018,05,18,09,16,8.90
2018,05,18,09,17,9.00
2018,05,18,09,18,9.00
2018,05,18,09,19,9.00
2018,05,18,09,20,9.00
2018,05,18,09,21,9.00
2018,05,18,09,22,9.00
2018,05,18,09,23,9.00
2018,05,18,09,24,9.00
2018,05,18,09,25,9.00
2018,05,18,09,26,9.10
2018,05,18,09,27,9.10
2018,05,18,09,28,9.10
2018,05,18,09,29,9.20
2018,05,18,09,30,9.20
2018,05,18,09,31,9.20
2018,05,18,09,32,9.30
2018,05,18,09,33,9.30
2018,05,18,09,34,9.30
2018,05,18,09,35,9.30
2018,05,18,09,36,9.40
2018,05,18,09,37,9.40
2018,05,18,09,38,9.50
2018,05,18,09,39,9.50
2018,05,18,09,40,9.60
2018,05,18,09,41,9.60
2018,05,18,09,42,9.70
2018,05,18,09,43,9.80
2018,05,18,09,44,9.80
2018,05,18,09,45,9.80
2018,05,18,09,46,9.90
2018,05,18,09,47,9.90
2018,05,18,09,48,10.00
2018,05,18,09,49,10.10
2018,05,18,09,50,10.20
2018,05,18,09,51,10.20
2018,05,18,09,52,10.30
2018,05,18,09,53,10.30
2018,05,18,09,54,10.40
2018,05,18,09,55,10.50
2018,05,18,09,56,10.50
2018,05,18,09,57,10.60
2018,05,18,09,58,10.60
2018,05,18,09,59,10.70
2018,05,18,10,00,10.70
2018,05,18,10,01,10.70
2018,05,18,10,02,10.80
2018,05,18,10,03,10.80
2018,05,18,10,04,10.80
2018,05,18,10,05,10.90
2018,05,18,10,06,10.90
2018,05,18,10,07,10.90
2018,05,18,10,08,11.00
2018,05,18,10,09,11.00
2018,05,18,10,10,11.10
2018,05,18,10,11,11.10
2018,05,18,10,12,11.20
2018,05,18,10,13,11.20
2018,05,18,10,14,11.30
2018,05,18,10,15,11.30
2018,05,18,10,16,11.40
2018,05,18,10,17,11.40
2018,05,18,10,18,11.50
2018,05,18,10,19,11.50
2018,05,18,10,20,11.60
2018,05,18,10,21,11.60
2018,05,18,10,22,11.70
2018,05,18,10,23,11.70
2018,05,18,10,24,11.70
2018,05,18,10,25,11.80
2018,05,18,10,26,11.80
2018,05,18,10,27,11.80
2018,05,18,10,28,11.90
2018,05,18,10,29,11.90
2018,05,18,10,30,11.90
2018,05,18,10,31,12.00
2018,05,18,10,32,12.00
2018,05,18,10,33,12.10
2018,05,18,10,34,12.10
2018,05,18,10,35,12.20
2018,05,18,10,36,12.20
2018,05,18,10,37,12.20
2018,05,18,10,38,12.30
2018,05,18,10,39,12.30
2018,05,18,10,40,12.40
2018,05,18,10,41,12.40
2018,05,18,10,42,12.40
2018,05,18,10,43,12.40
2018,05,18,10,44,12.40
2018,05,18,10,45,12.40
2018,05,18,10,46,12.40
2018,05,18,10,47,12.40
2018,05,18,10,48,12.40
2018,05,18,10,49,12.40
2018,05,18,10,50,12.40
2018,05,18,10,51,12.40
2018,05,18,10,52,12.40
2018,05,18,10,53,12.40
2018,05,18,10,54,12.40
2018,05,18,10,55,12.50
2018,05,18,10,56,12.50
2018,05,18,10,57,12.60
2018,05,18,10,58,12.60
2018,05,18,10,59,12.70
2018,05,18,11,00,12.70
2018,05,18,11,01,12.80
2018,05,18,11,02,12.80
2018,05,18,11,03,12.80
2018,05,18,11,04,12.80
2018,05,18,11,05,12.90
2018,05,18,11,06,12.90
2018,05,18,11,07,12.90
2018,05,18,11,08,12.90
2018,05,18,11,09,12.90
2018,05,18,11,10,13.00
2018,05,18,11,11,13.00
2018,05,18,11,12,12.90
2018,05,18,11,13,12.90
2018,05,18,11,14,12.90
2018,05,18,11,15,12.90
2018,05,18,11,16,12.90
2018,05,18,11,17,12.90
2018,05,18,11,18,13.00
2018,05,18,11,19,13.00
2018,05,18,11,20,13.00
2018,05,18,11,21,13.00
2018,05,18,11,22,13.00
2018,05,18,11,23,13.10
2018,05,18,11,24,13.10
2018,05,18,11,25,13.20
2018,05,18,11,26,13.20
2018,05,18,11,27,13.30
2018,05,18,11,28,13.40
2018,05,18,11,29,13.40
2018,05,18,11,30,13.40
2018,05,18,11,31,13.40
2018,05,18,11,32,13.40
2018,05,18,11,33,13.40
2018,05,18,11,34,13.40
2018,05,18,11,35,13.40
2018,05,18,11,36,13.40
2018,05,18,11,37,13.40
2018,05,18,11,38,13.40
2018,05,18,11,39,13.40
2018,05,18,11,40,13.50
2018,05,18,11,41,13.50
2018,05,18,11,42,13.40
2018,05,18,11,43,13.40
2018,05,18,11,44,13.40
2018,05,18,11,45,13.40
2018,05,18,11,46,13.40
2018,05,18,11,47,13.50
2018,05,18,11,48,13.50
2018,05,18,11,49,13.50
2018,05,18,11,50,13.60
2018,05,18,11,51,13.60
2018,05,18,11,52,13.70
2018,05,18,11,53,13.70
2018,05,18,11,54,13.90
2018,05,18,11,55,13.90
2018,05,18,11,56,14.00
2018,05,18,11,57,14.10
2018,05,18,11,58,14.20
2018,05,18,11,59,14.30
2018,05,18,12,00,14.40
2018,05,18,12,01,14.50
2018,05,18,12,02,14.50
2018,05,18,12,03,14.60
2018,05,18,12,04,14.70
2018,05,18,12,05,14.80
2018,05,18,12,06,14.80
2018,05,18,12,07,14.90
2018,05,18,12,08,14.90
2018,05,18,12,09,15.00
2018,05,18,12,10,15.00
2018,05,18,12,11,15.00
2018,05,18,12,12,15.00
2018,05,18,12,13,14.90
2018,05,18,12,14,14.90
2018,05,18,12,15,14.90
2018,05,18,12,16,14.90
2018,05,18,12,17,14.90
2018,05,18,12,18,14.90
2018,05,18,12,19,15.00
2018,05,18,12,20,15.00
2018,05,18,12,21,15.00
2018,05,18,12,22,14.90
2018,05,18,12,23,15.00
2018,05,18,12,24,15.00
2018,05,18,12,25,15.00
2018,05,18,12,26,15.00
2018,05,18,12,27,14.90
2018,05,18,12,28,14.90
2018,05,18,12,29,14.80
2018,05,18,12,30,14.80
2018,05,18,12,31,14.70
2018,05,18,12,32,14.60
2018,05,18,12,33,14.60
2018,05,18,12,34,14.60
2018,05,18,12,35,14.60
2018,05,18,12,36,14.50
2018,05,18,12,37,14.50
2018,05,18,12,38,14.50
2018,05,18,12,39,14.50
2018,05,18,12,40,14.50
2018,05,18,12,41,14.50
2018,05,18,12,42,14.50
2018,05,18,12,43,14.60
2018,05,18,12,44,14.60
2018,05,18,12,45,14.70
2018,05,18,12,46,14.70
2018,05,18,12,47,14.80
2018,05,18,12,48,14.80
2018,05,18,12,49,14.90
2018,05,18,12,50,14.90
2018,05,18,12,51,15.00
2018,05,18,12,52,15.00
2018,05,18,12,53,15.10
2018,05,18,12,54,15.10
2018,05,18,12,55,15.20
2018,05,18,12,56,15.20
2018,05,18,12,57,15.20
2018,05,18,12,58,15.30
2018,05,18,12,59,15.30
2018,05,18,13,00,15.30
2018,05,18,13,01,15.30
2018,05,18,13,02,15.40
2018,05,18,13,03,15.40
2018,05,18,13,04,15.50
2018,05,18,13,05,15.60
2018,05,18,13,06,15.60
2018,05,18,13,07,15.70
2018,05,18,13,08,15.80
2018,05,18,13,09,15.80
2018,05,18,13,10,15.80
2018,05,18,13,11,15.90
2018,05,18,13,12,15.90
2018,05,18,13,13,16.00
2018,05,18,13,14,16.00
2018,05,18,13,15,16.10
2018,05,18,13,16,16.10
2018,05,18,13,17,16.20
2018,05,18,13,18,16.20
2018,05,18,13,19,16.30
2018,05,18,13,20,16.30
2018,05,18,13,21,16.30
2018,05,18,13,22,16.40
2018,05,18,13,23,16.40
2018,05,18,13,24,16.40
2018,05,18,13,25,16.40
2018,05,18,13,26,16.40
2018,05,18,13,27,16.40
2018,05,18,13,28,16.40
2018,05,18,13,29,16.50
2018,05,18,13,30,16.60
2018,05,18,13,31,16.60
2018,05,18,13,32,16.70
2018,05,18,13,33,16.70
2018,05,18,13,34,16.80
2018,05,18,13,35,16.80
2018,05,18,13,36,16.80
2018,05,18,13,37,16.90
2018,05,18,13,38,17.00
2018,05,18,13,39,17.10
2018,05,18,13,40,17.20
2018,05,18,13,41,17.30
2018,05,18,13,42,17.30
2018,05,18,13,43,17.30
2018,05,18,13,44,17.30
2018,05,18,13,45,17.20
2018,05,18,13,46,17.20
2018,05,18,13,47,17.20
2018,05,18,13,48,17.20
2018,05,18,13,49,17.20
2018,05,18,13,50,17.20
2018,05,18,13,51,17.20
2018,05,18,13,52,17.30
2018,05,18,13,53,17.30
2018,05,18,13,54,17.30
2018,05,18,13,55,17.30
2018,05,18,13,56,17.40
2018,05,18,13,57,17.40
2018,05,18,13,58,17.50
2018,05,18,13,59,17.50
2018,05,18,14,00,17.50
2018,05,18,14,01,17.50
2018,05,18,14,02,17.50
2018,05,18,14,03,17.60
2018,05,18,14,04,17.60
2018,05,18,14,05,17.60
2018,05,18,14,06,17.60
2018,05,18,14,07,17.60
2018,05,18,14,08,17.60
2018,05,18,14,09,17.70
2018,05,18,14,10,17.70
2018,05,18,14,11,17.80
2018,05,18,14,12,17.90
2018,05,18,14,13,17.90
2018,05,18,14,14,18.00
2018,05,18,14,15,18.00
2018,05,18,14,16,18.10
2018,05,18,14,17,18.10
2018,05,18,14,18,18.10
2018,05,18,14,19,18.10
2018,05,18,14,20,18.20
2018,05,18,14,21,18.20
2018,05,18,14,22,18.20
2018,05,18,14,23,18.20
2018,05,18,14,24,18.20
2018,05,18,14,25,18.30
2018,05,18,14,26,18.30
2018,05,18,14,27,18.30
2018,05,18,14,28,18.30
2018,05,18,14,29,18.30
2018,05,18,14,30,18.40
2018,05,18,14,31,18.40
2018,05,18,14,32,18.40
2018,05,18,14,33,18.40
2018,05,18,14,34,18.40
2018,05,18,14,35,18.40
2018,05,18,14,36,18.40
2018,05,18,14,37,18.40
2018,05,18,14,38,18.40
2018,05,18,14,39,18.40
2018,05,18,14,40,18.40
2018,05,18,14,41,18.40
2018,05,18,14,42,18.40
2018,05,18,14,43,18.40
2018,05,18,14,44,18.50
2018,05,18,14,45,18.50
2018,05,18,14,46,18.60
2018,05,18,14,47,18.60
2018,05,18,14,48,18.70
2018,05,18,14,49,18.70
2018,05,18,14,50,18.70
2018,05,18,14,51,18.70
2018,05,18,14,52,18.70
2018,05,18,14,53,18.80
2018,05,18,14,54,18.90
2018,05,18,14,55,18.90
2018,05,18,14,56,19.00
2018,05,18,14,57,19.00
2018,05,18,14,58,19.10
2018,05,18,14,59,19.10
2018,05,18,15,00,19.20
2018,05,18,15,01,19.20
2018,05,18,15,02,19.30
2018,05,18,15,03,19.30
2018,05,18,15,04,19.30
2018,05,18,15,05,19.30
2018,05,18,15,06,19.30
2018,05,18,15,07,19.30
2018,05,18,15,08,19.30
2018,05,18,15,09,19.30
2018,05,18,15,10,19.30
2018,05,18,15,11,19.30
2018,05,18,15,12,19.20
2018,05,18,15,13,19.20
2018,05,18,15,14,19.20
2018,05,18,15,15,19.20
2018,05,18,15,16,19.20
2018,05,18,15,17,19.20
2018,05,18,15,18,19.20
2018,05,18,15,19,19.20
2018,05,18,15,20,19.20
2018,05,18,15,21,19.30
2018,05,18,15,22,19.30
2018,05,18,15,23,19.40
2018,05,18,15,24,19.40
2018,05,18,15,25,19.50
2018,05,18,15,26,19.50
2018,05,18,15,27,19.40
2018,05,18,15,28,19.40
2018,05,18,15,29,19.40
2018,05,18,15,30,19.50
2018,05,18,15,31,19.50
2018,05,18,15,32,19.50
2018,05,18,15,33,19.60
2018,05,18,15,34,19.60
2018,05,18,15,35,19.70
2018,05,18,15,36,19.70
2018,05,18,15,37,19.70
2018,05,18,15,38,19.80
2018,05,18,15,39,19.80
2018,05,18,15,40,19.90
2018,05,18,15,41,19.90
2018,05,18,15,42,20.00
2018,05,18,15,43,20.10
2018,05,18,15,44,20.10
2018,05,18,15,45,20.10
2018,05,18,15,46,20.10
2018,05,18,15,47,20.20
2018,05,18,15,48,20.20
2018,05,18,15,49,20.20
2018,05,18,15,50,20.30
2018,05,18,15,51,20.30
2018,05,18,15,52,20.30
2018,05,18,15,53,20.30
2018,05,18,15,54,20.30
2018,05,18,15,55,20.30
2018,05,18,15,56,20.30
2018,05,18,15,57,20.40
2018,05,18,15,58,20.30
2018,05,18,15,59,20.30
2018,05,18,16,00,20.30
2018,05,18,16,01,20.30
2018,05,18,16,02,20.20
2018,05,18,16,03,20.20
2018,05,18,16,04,20.10
2018,05,18,16,05,20.10
2018,05,18,16,06,20.00
2018,05,18,16,07,20.00
2018,05,18,16,08,20.00
2018,05,18,16,09,20.10
2018,05,18,16,10,20.10
2018,05,18,16,11,20.10
2018,05,18,16,12,20.10
2018,05,18,16,13,20.10
2018,05,18,16,14,20.10
2018,05,18,16,15,20.10
2018,05,18,16,16,20.10
2018,05,18,16,17,20.10
2018,05,18,16,18,20.10
2018,05,18,16,19,20.10
2018,05,18,16,20,20.10
2018,05,18,16,21,20.00
2018,05,18,16,22,20.00
2018,05,18,16,23,20.00
2018,05,18,16,24,20.00
2018,05,18,16,25,20.10
2018,05,18,16,26,20.10
2018,05,18,16,27,20.20
2018,05,18,16,28,20.20
2018,05,18,16,29,20.20
2018,05,18,16,30,20.30
2018,05,18,16,31,20.30
2018,05,18,16,32,20.40
2018,05,18,16,33,20.30
2018,05,18,16,34,20.30
2018,05,18,16,35,20.30
2018,05,18,16,36,20.30
2018,05,18,16,37,20.30
2018,05,18,16,38,20.30
2018,05,18,16,39,20.30
2018,05,18,16,40,20.30
2018,05,18,16,41,20.30
2018,05,18,16,42,20.30
2018,05,18,16,43,20.30
2018,05,18,16,44,20.30
2018,05,18,16,45,20.30
2018,05,18,16,46,20.30
2018,05,18,16,47,20.30
2018,05,18,16,48,20.30
2018,05,18,16,49,20.30
2018,05,18,16,50,20.30
2018,05,18,16,51,20.30
2018,05,18,16,52,20.30
2018,05,18,16,53,20.40
2018,05,18,16,54,20.40
2018,05,18,16,55,20.50
2018,05,18,16,56,20.50
2018,05,18,16,57,20.40
2018,05,18,16,58,20.40
2018,05,18,16,59,20.40
2018,05,18,17,00,20.40
2018,05,18,17,01,20.40
2018,05,18,17,02,20.40
2018,05,18,17,03,20.40
2018,05,18,17,04,20.40
2018,05,18,17,05,20.40
2018,05,18,17,06,20.30
2018,05,18,17,07,20.30
2018,05,18,17,08,20.30
2018,05,18,17,09,20.30
2018,05,18,17,10,20.30
2018,05,18,17,11,20.30
2018,05,18,17,12,20.30
2018,05,18,17,13,20.30
2018,05,18,17,14,20.30
2018,05,18,17,15,20.30
2018,05,18,17,16,20.30
2018,05,18,17,17,20.20
2018,05,18,17,18,20.20
2018,05,18,17,19,20.20
2018,05,18,17,20,20.20
2018,05,18,17,21,20.20
2018,05,18,17,22,20.20
2018,05,18,17,23,20.20
2018,05,18,17,24,20.20
2018,05,18,17,25,20.20
2018,05,18,17,26,20.20
2018,05,18,17,27,20.10
2018,05,18,17,28,20.10
2018,05,18,17,29,20.20
2018,05,18,17,30,20.20
2018,05,18,17,31,20.30
2018,05,18,17,32,20.40
2018,05,18,17,33,20.50
2018,05,18,17,34,20.50
2018,05,18,17,35,20.60
2018,05,18,17,36,20.60
2018,05,18,17,37,20.60
2018,05,18,17,38,20.60
2018,05,18,17,39,20.60
2018,05,18,17,40,20.60
2018,05,18,17,41,20.60
2018,05,18,17,42,20.60
2018,05,18,17,43,20.60